Weather in Solopenki

Russia / Tula Oblast     54°32′45″N   36°59′49″E
temp.,
°C
wind,
m/s
gust,
m/s
humid.,
%
clouds,
%
prec.,
mm/h
press.,
hPa
HPBL,
m
11 april, sun
sun1100:00+3ssw36690 0.0 102693
03:00+2sw35720 0.0 102763
06:00+2sw33760 0.0 102840
09:00+7sw34600 0.0 1030249
12:00+12sw22460 0.0 1030749
15:00+14ssw11410 0.0 10301192
18:00+13e22500 0.0 103029
21:00+9e33610 0.0 103221
12 april, mon
mon1200:00+7ese33690 0.0 103235
03:00+5e3474100 0.0 103357
06:00+4ene41178100 0.0 1033215
09:00+8e61456100 0.0 1032554
12:00+11e71158100 0.0 1030769
15:00+12ese6867100 0.0 1028777
18:00+12ese5974100 0.0 1027550
21:00+8e379173 0.0 1027137
13 april, tue
tue1300:00+8e389290 0.0 1026136
03:00+8se378888 0.0 1025113
06:00+7se4985100 0.0 1025124
09:00+12sse41070100 0.0 1025298
12:00+16sse5850100 0.0 1024606
15:00+19s674173 0.0 10231671
18:00+17sse474890 0.0 1023176
21:00+12se345866 0.0 102343
14 april, wed
wed1400:00+11se4116717 0.0 1023169
03:00+9se4117042 0.0 1022198
06:00+8sse367869 0.0 102284
09:00+13sse586097 0.0 1022296
12:00+17sse5843100 0.0 1021648
15:00+19sse673380 0.0 10191522
18:00+16se374675 0.0 1018179
21:00+12se3554100 0.0 101952
15 april, thu
thu1500:00+11se3359100 0.0 101840
03:00+9se3364100 0.0 101731
06:00+9sse2270100 0.0 101721
09:00+12e2358100 0.0 1017185
12:00+16sse4546100 0.0 1016816
15:00+17sw2444100 0.0 10161781
18:00+15nne3559100 0.0 1016168
21:00+12nne51167100 0.0 1016263